Starlink 35540

operational
NORAD ID: 66151 Int'l Des: 2025-240 Owner: SPXS Country: US Constellation: starlink
LEOCIRCULAR

Starlink 35540について

説明を読み込み中...

リアルタイム位置

3D地球を読み込み中...

次回通過

高度履歴

Altitude vs Time

uPlot chart will show altitude changes over time

軌道要素

1 66151C 25240G 25298.74215278 .00653350 00000+0 10651-2 0 2982
2 66151 53.1580 338.8176 0009095 270.3665 320.4428 16.01855085 14
Epoch: Oct 25, 2025 • Age: 151 hours

現在のステータス

高度 258.3 km
速度 7.75 km/s
衛星直下点 -51.11°S, 54.98°E
打ち上げ日 Oct 25, 2025
運用期間 5 days
タイプ internet

技術仕様

分類 Payload
質量 575.00 kg
乾燥質量 530.00 kg
総質量 575.00 kg
長さ 0.30 m
直径 4.10 m
スパン 29.00 m
形状 Box + pan
製造者 SPXS
バスタイプ Starlink V2MO
フェーズステータス In Orbit
所有者/国 SPXS/US

大規模コンステレーション

Loading constellations...